Regional Weather Roundup
Issued by NWS

Home | Current Version | Previous Version | Graphics & Text | Print | Product List | Glossary On
Versions: 1 2 3 4 5 6 7 8 9 10 11 12 13 14 15 16 17 18 19 20 21 22 23 24 25 26 27 28 29 30 31 32 33 34 35 36 37 38 39 40 41 42 43 44 45 46 47 48 49 50
000
ASUS43 KMKX 031911
RWRWI

WISCONSIN REGIONAL WEATHER ROUNDUP
NATIONAL WEATHER SERVICE MILWAUKEE/SULLIVAN WI
200 PM CDT MON AUG 03 2015

NOTE: "FAIR" INDICATES FEW OR NO CLOUDS BELOW 12,000 FEET WITH NO
SIGNIFICANT WEATHER AND/OR OBSTRUCTIONS TO VISIBILITY.

WIZ001-002-006>008-014>016-023>028-032000-
NORTHWEST WISCONSIN

CITY           SKY/WX    TMP DP  RH WIND       PRES   REMARKS
SUPERIOR ARPT  CLOUDY    69  55  60 NW12      29.85R
ASHLAND        CLOUDY    70  54  56 W12G22    29.83S
HAYWARD        CLOUDY    69  51  52 VRB6      29.87R
SIREN          PTSUNNY   73  49  42 NW12      29.88F
CUMBERLAND     PTSUNNY   70  50  49 NW12G21   29.89S
RICE LAKE      PTSUNNY   73  51  47 NW12G17   29.89S
CHETEK         PTSUNNY   72  53  52 W9G23     29.87S
LADYSMITH      CLOUDY    70  53  53 W13G18    29.88S
EAU CLAIRE     MOSUNNY   78  50  37 NW14G26   29.87R
MENOMONIE      SUNNY     77  44  30 W20G25    29.88S
NEW RICHMOND   SUNNY     74  49  40 NW13G23   29.90S
OSCEOLA        MOSUNNY   74  50  42 NW15      29.92F
$$

WIZ003>005-009-010-017-018-032000-
NORTH CENTRAL WISCONSIN

CITY           SKY/WX    TMP DP  RH WIND       PRES   REMARKS
MANITOWISH WTR CLOUDY    64  51  62 NW10      29.84R
ARBOR VITAE    PTSUNNY   72  55  55 NW13G20   29.84R
WOODRUFF       PTSUNNY   72  55  55 NW13G20   29.84R
RHINELANDER    CLOUDY    71  50  47 NW13G25   29.84S
EAGLE RIVER    PTSUNNY   66  47  50 NW12G18   29.82F
LAND O LAKES   CLOUDY    65  50  57 NW8       29.84R
PHILLIPS       CLOUDY    66  52  60 W7        29.85R
TOMAHAWK       PTSUNNY   69  52  54 W14G22    29.84S
MEDFORD        CLOUDY    69  53  55 NW12G18   29.87R
MERRILL        NOT AVBL
$$

WIZ029-030-035-036-043>047-032000-
CENTRAL WISCONSIN

CITY           SKY/WX    TMP DP  RH WIND       PRES   REMARKS
WAUSAU         CLOUDY    74  51  44 NW15G21   29.83R
MOSINEE        CLOUDY    72  52  49 W12G17    29.86R
MARSHFIELD     PTSUNNY   74  49  41 NW16G24   29.85S
STEVENS POINT  MOSUNNY   73  49  42 W12G23    29.85R
WAUPACA        MOSUNNY   80  45  29 W18       29.83S
WAUTOMA        SUNNY     82  45  27 NW18G24   29.84S HX  80
WISC RAPIDS    MOSUNNY   77  45  32 NW17G24   29.86S
CAMP DOUGLAS   MOSUNNY   79  50  36 W20       29.86F
$$

WIZ011>013-019>022-031-037>040-048>050-032000-
NORTHEAST WISCONSIN

CITY           SKY/WX    TMP DP  RH WIND       PRES   REMARKS
ANTIGO         CLOUDY    71  51  49 NW16      29.83S
SHAWANO        PTSUNNY   77  47  34 NW14G26   29.80S
OCONTO         MOSUNNY   76  50  39 W15       29.77F
STURGEON BAY   PTSUNNY   73  52  46 W13       29.80S
GREEN BAY      SUNNY     77  53  43 W14       29.80F
MANITOWOC      SUNNY     76  46  34 MISG      29.80F
APPLETON       PTSUNNY   75  45  33 NW12G17   29.82F
CLINTONVILLE   PTSUNNY   75  43  31 W18G24    29.81S
OSHKOSH        SUNNY     77  49  37 NW15G26   29.82S
$$

WIZ032>034-041-042-053>061-032000-
SOUTHWEST WISCONSIN

CITY           SKY/WX    TMP DP  RH WIND       PRES   REMARKS
LA CROSSE      SUNNY     81  49  32 NW13      29.88F HX  80
SPARTA         MOSUNNY   79  44  28 NW12G25   29.89S
VIROQUA        SUNNY     76  47  36 W12G18    29.91F
BOSCOBEL       MOSUNNY   82  51  34 W10G18    29.89F HX  81
PRAIRIE DU CHI SUNNY     81  43  26 W16       29.89F
PLATTEVILLE    SUNNY     78  50  38 W12G20    29.91F
$$

WIZ056-057-062-063-064-067-068-032000-
SOUTH CENTRAL WISCONSIN

CITY           SKY/WX    TMP DP  RH WIND       PRES   REMARKS
REEDSBURG      MOSUNNY   79  48  33 NW14G22   29.87S
BARABOO/DELLS  MOSUNNY   79  43  27 W16G22    29.87S
LONE ROCK      SUNNY     81  49  32 W13G21    29.88F HX  80
MINERAL POINT  MOSUNNY   79  45  29 W8G24     29.91S
MADISON        MOSUNNY   78  48  34 W14G22    29.87S
MIDDLETON      SUNNY     80  43  26 W15G22    29.88S
WATERTOWN      MOSUNNY   77  50  39 NW13      29.86S
MONROE         SUNNY     77  45  31 W17       29.90S
JANESVILLE     SUNNY     81  43  26 W12       29.87F
$$

WIZ051-052-058>065-066-070>072-032000-
SOUTHEAST WISCONSIN

CITY           SKY/WX    TMP DP  RH WIND       PRES   REMARKS
MILWAUKEE      MOSUNNY   79  45  29 W17G29    29.84S
WAUKESHA       MOSUNNY   77  45  31 NW18G29   29.86F
MILWAUKEE/TIMM MOSUNNY   79  41  25 W16G28    29.85S
RACINE         SUNNY     79  47  32 NW16G22   29.86S
BURLINGTON     SUNNY     78  43  28 W10       29.86S
KENOSHA        SUNNY     78  51  38 W13G24    29.85F
FOND DU LAC    MOSUNNY   78  50  37 NW15G25   29.83F
SHEBOYGAN      MOSUNNY   75  49  39 W17G25    29.82F
WEST BEND      MOSUNNY   75  43  31 W12G28    29.83F
JUNEAU         MOSUNNY   75  49  40 W14G22    29.86S
$$

LSZ147-162-032000-
LAKE SUPERIOR

STATION/POSITION TIME  TEMP    WIND        PRES    WAVE
                       AIR SEA DIR/SP/G            HT/PER
                 (UTC) (F)     (DEG/KT/KT) (MB)    (FT/S)
W MID LAKE BUOY  1850   58 56  240/ 12/ 14 1008.3R   2/ 4
DEVILS ISLAND    1900   62     250/ 13/ 16 1009.2S
PORT WING        1840   63     270/ 11/ 14 1010.5R
SAXON HARBOR     1840   67     330/ 11     1009.5S
$$

LMZ867-665-643>646-032000-
LAKE MICHIGAN

STATION/POSITION TIME  TEMP    WIND        PRES    WAVE
                       AIR SEA DIR/SP/G            HT/PER
                 (UTC) (F)     (DEG/KT/KT) (MB)    (FT/S)
CHAMBERS ISLAND  1800   71     250/  7/ 10 1008.1S
S GREEN BAY BUOY 1900   71 72  240/  8/  8 1010.0F
N MID LAKE BUOY  1850   68 67  210/ 10/ 12 1007.4F   1/ 5
NORTHPORT PIER   1800   70     220/  8/ 12 1007.8S
SISTER BAY       1818   73     230/ 10/ 12   N/A
ALGOMA LAKESHORE 1812          270/  7/ 10   N/A
KEWAUNEE LAKESHO 1800   73     270/ 10/ 14 1008.4S
SHEBOYGAN LAKESH 1900   73     290/ 14/ 17 1009.7F
PORT WASHINGTON  1800   77     310/  5/ 17 1010.8S
ATWATER BUOY     1900   67 50  290/ 12/ 16 1011.7F
MILWAUKEE LAKESH 1800   75     290/ 11/ 17   N/A
KENOSHA   LAKESH 1900   77     300/ 19/ 22 1010.2S
$$

TC  - TEMPERATURE IN CELSIUS
VSB - VISIBILITY IN STATUTE MILES
WCI - WIND CHILL INDEX
HX  - HEAT INDEX



USA.gov is the U.S. government's official web portal to all federal, state and local government web resources and services.